Location: Sperry Observatory
(40.6664°N, 74.3236°W)
Time: 12:33:37
(UTC-04:00)

UOSAT-12 - Visible Passes

Search period start: 24 April 2018 00:00
Search period end: 04 May 2018 00:00
Orbit: 592 x 661 km, 64.6° (Epoch: 24 April)

Date Brightness Start Highest point End Pass type
(mag) Time Alt. Az. Time Alt. Az. Time Alt. Az.
24 Apr 8.6 04:00:14 21° SSE 04:02:21 31° ESE 04:06:29 10° NE visible
25 Apr 7.3 04:19:46 31° SSW 04:21:56 70° ESE 04:26:38 10° NE visible
26 Apr 9.3 03:01:55 17° ESE 03:02:04 17° ESE 03:05:05 10° ENE visible
26 Apr 7.4 04:39:13 25° WSW 04:41:43 55° NW 04:46:21 10° NNE visible
27 Apr 8.1 03:21:19 37° ESE 03:21:31 37° ESE 03:25:50 10° NE visible
27 Apr 8.4 04:58:36 15° W 05:01:41 28° NW 05:05:46 10° NNE visible
28 Apr 7.0 03:40:38 70° S 03:41:09 82° ESE 03:45:52 10° NE visible
28 Apr 9.2 05:18:58 10° WNW 05:21:52 16° NW 05:24:46 10° N visible
29 Apr 9.4 02:22:38 18° E 02:22:38 18° E 02:24:37 10° ENE visible
29 Apr 7.6 03:59:54 40° W 04:00:57 47° NW 04:05:32 10° NNE visible
30 Apr 8.4 02:41:51 36° E 02:41:51 36° E 02:45:10 10° NE visible
30 Apr 8.7 04:19:08 19° W 04:20:59 25° NW 04:24:52 10° N visible
01 May 7.4 03:01:01 66° NNE 03:01:01 66° NNE 03:05:07 10° NNE visible
01 May 9.4 04:38:40 10° WNW 04:41:12 14° NW 04:43:45 10° N visible
02 May 9.6 01:42:52 16° ENE 01:42:52 16° ENE 01:44:06 10° ENE visible
02 May 7.9 03:20:09 41° NW 03:20:13 41° NW 03:24:42 10° NNE visible
03 May 8.8 02:01:57 29° ENE 02:01:57 29° ENE 02:04:28 10° NE visible
03 May 8.8 03:39:13 20° WNW 03:40:17 22° NW 03:43:58 10° N visible
